Location: Central Falls
(41.8900°N, 71.3929°W)
Time: 11:40:36
(UTC+00:00)

Tiros 1 despin weight - Pass Details

Date: 04 December 2023
Orbit: 581 x 625 km, 48.2° (Epoch: 21 February)

Event Time Altitude Azimuth Distance (km) Brightness Sun altitude
Rises 22:03:49 0° 213° (SSW) 2,801 ? -9.1°
Reaches altitude 10° 22:06:15 10° 204° (SSW) 1,898 ? -9.5°
Maximum altitude 22:10:08 32° 141° (SE) 1,000 ? -10.1°
Enters shadow 22:13:15 14° 82° (E) 1,638 ? -10.7°
